EW2561 Weather Reports


Display with metric or nautical units.
time (UTC)temp
F
wind
direction
speed
MPH
gust
MPH
rain 1hr
in
rain 24hr
in
rain mn
in
humidity
%
barometer
mb
20260510095731 62 106 2.0 5.0 0.00 0.00 0.00 67 1010.2
20260510095225 62 1 2.0 5.0 0.00 0.00 0.00 66 1010.2
20260510094724 62 38 2.0 7.0 0.00 0.00 0.00 66 1010.3
20260510094223 62 344 3.0 7.0 0.00 0.00 0.00 65 1010.4
20260510093723 63 58 2.0 6.0 0.00 0.00 0.00 67 1010.5
20260510093213 62 41 3.0 6.0 0.00 0.00 0.00 66 1010.5
20260510092704 63 356 3.0 6.0 0.00 0.00 0.00 66 1010.5
20260510092202 63 347 2.0 7.0 0.00 0.00 0.00 67 1010.5
20260510091641 63 359 2.0 7.0 0.00 0.00 0.00 66 1010.6
20260510091132 62 92 3.0 7.0 0.00 0.00 0.00 67 1010.6
20260510090632 62 4 3.0 7.0 0.00 0.00 0.00 68 1010.6
20260510090131 62 359 3.0 7.0 0.00 0.00 0.00 68 1010.7
20260510085631 63 27 2.0 7.0 0.00 0.00 0.00 67 1010.7
20260510085104 62 25 2.0 6.0 0.00 0.00 0.00 67 1010.8
20260510084823 62 6 2.0 6.0 0.00 0.00 0.00 68 1010.8
20260510084033 61 110 2.0 5.0 0.00 0.00 0.00 70 1010.9
20260510083754 61 18 2.0 5.0 0.00 0.00 0.00 72 1010.8
20260510083250 60 28 2.0 5.0 0.00 0.00 0.00 72 1010.9
20260510082525 60 14 2.0 8.0 0.00 0.00 0.00 74 1010.9
20260510082003 59 57 2.0 8.0 0.00 0.00 0.00 75 1010.9
20260510081431 59 63 2.0 5.0 0.00 0.00 0.00 77 1011.0
20260510080932 58 1 2.0 7.0 0.00 0.00 0.00 77 1011.0
20260510080424 58 282 2.0 5.0 0.00 0.00 0.00 79 1010.9
20260510080149 57 32 3.0 7.0 0.00 0.00 0.00 79 1011.0
20260510075403 57 67 2.0 7.0 0.00 0.00 0.00 80 1011.0
20260510074902 56 32 2.0 7.0 0.00 0.00 0.00 81 1011.1
20260510074402 56 343 3.0 6.0 0.00 0.00 0.00 82 1011.0
20260510074130 56 332 3.0 8.0 0.00 0.00 0.00 82 1011.1
20260510073600 56 33 2.0 6.0 0.00 0.00 0.00 82 1011.1
20260510073051 55 11 2.0 7.0 0.00 0.00 0.00 83 1011.1
20260510072555 55 44 3.0 7.0 0.00 0.00 0.00 83 1011.1
20260510072027 55 8 3.0 7.0 0.00 0.00 0.00 83 1011.1
20260510071531 55 359 2.0 7.0 0.00 0.00 0.00 84 1011.1
20260510070956 54 15 2.0 7.0 0.00 0.00 0.00 85 1011.2
20260510070222 54 30 2.0 7.0 0.00 0.00 0.00 85 1011.1
20260510065927 54 46 2.0 5.0 0.00 0.00 0.00 86 1011.1
20260510065145 53 18 2.0 5.0 0.00 0.00 0.00 86 1011.1
20260510064630 53 8 2.0 5.0 0.00 0.00 0.00 86 1011.1
20260510064131 53 359 2.0 5.0 0.00 0.00 0.00 86 1011.1
20260510063632 53 76 2.0 5.0 0.00 0.00 0.00 87 1011.1
20260510063132 53 346 2.0 5.0 0.00 0.00 0.00 87 1011.0
20260510062629 52 1 2.0 5.0 0.00 0.00 0.00 88 1011.0
20260510062129 52 1 2.0 5.0 0.00 0.00 0.00 87 1011.0
20260510061627 52 349 1.0 2.0 0.00 0.00 0.00 88 1011.0
20260510061103 52 23 2.0 5.0 0.00 0.00 0.00 88 1011.0
20260510060548 52 68 2.0 5.0 0.00 0.00 0.00 88 1011.0
20260510060031 51 91 2.0 5.0 0.00 0.00 0.00 88 1011.0
20260510055532 51 106 1.0 5.0 0.00 0.00 0.00 88 1011.0
20260510055032 51 36 1.0 4.0 0.00 0.00 0.00 88 1011.0
20260510055018 51 33 1.0 4.0 0.00 0.00 0.00 88 1011.0
20260510054030 51 0 1.0 4.0 0.00 0.00 0.00 88 1011.1
20260510053526 51 13 1.0 4.0 0.00 0.00 0.00 88 1011.1
20260510053021 51 52 0.0 3.0 0.00 0.00 0.00 88 1011.0
20260510052504 51 25 0.0 3.0 0.00 0.00 0.00 88 1011.0
20260510052230 51 25 0.0 3.0 0.00 0.00 0.00 88 1011.0
20260510051654 50 1 1.0 3.0 0.00 0.00 0.00 88 1011.0
20260510050943 50 1 1.0 3.0 0.00 0.00 0.00 88 1011.1
20260510050418 50 15 1.0 3.0 0.00 0.00 0.00 88 1011.1
20260510045904 50 359 1.0 3.0 0.00 0.00 0.00 88 1011.1
20260510045403 50 9 0.0 3.0 0.00 0.00 0.00 88 1011.1
20260510044833 50 9 1.0 3.0 0.00 0.00 0.00 88 1011.0
20260510044330 50 7 1.0 3.0 0.00 0.00 0.00 88 1011.0
20260510043835 50 8 1.0 3.0 0.00 0.00 0.00 88 1011.0
20260510043308 50 23 0.0 1.0 0.00 0.00 0.00 88 1010.9
20260510042807 50 23 0.0 2.0 0.00 0.00 0.00 88 1010.9
20260510042236 50 23 0.0 2.0 0.00 0.00 0.00 88 1010.9
20260510041735 50 23 1.0 3.0 0.00 0.00 0.00 88 1010.9
20260510041231 50 18 1.0 3.0 0.00 0.00 0.00 89 1011.0
20260510040731 49 73 0.0 1.0 0.00 0.00 0.00 90 1011.1
20260510040230 49 89 0.0 1.0 0.00 0.00 0.00 90 1011.0
20260510035726 49 89 1.0 3.0 0.00 0.00 0.00 91 1011.0
20260510035212 49 89 1.0 3.0 0.00 0.00 0.00 92 1011.0
20260510034704 49 75 0.0 2.0 0.00 0.00 0.00 93 1011.1
20260510034141 48 15 0.0 2.0 0.00 0.00 0.00 94 1011.1
20260510033632 48 15 0.0 2.0 0.00 0.00 0.00 94 1011.1
20260510033131 48 65 0.0 2.0 0.00 0.00 0.00 95 1011.1
20260510032852 48 11 0.0 0.0 0.00 0.00 0.00 95 1011.0
20260510032352 47 11 0.0 0.0 0.00 0.00 0.00 95 1011.1
20260510031847 47 11 0.0 0.0 0.00 0.00 0.00 94 1011.1
20260510031105 47 11 0.0 0.0 0.00 0.00 0.00 94 1011.0
20260510030744 47 11 0.0 0.0 0.00 0.00 0.00 94 1011.0
20260510030734 47 11 0.0 0.0 0.00 0.00 0.00 94 1011.1
20260510025524 47 11 0.0 0.0 0.00 0.00 0.00 94 1011.2
20260510025005 47 11 0.0 0.0 0.00 0.00 0.00 93 1011.2
20260510024909 47 11 0.0 0.0 0.00 0.00 0.00 93 1011.2
20260510024003 48 11 0.0 0.0 0.00 0.00 0.00 93 1011.2
20260510023721 48 11 0.0 0.0 0.00 0.00 0.00 94 1011.2
20260510023003 48 11 0.0 0.0 0.00 0.00 0.00 93 1011.2
20260510022431 48 11 0.0 0.0 0.00 0.00 0.00 93 1011.1
20260510021930 48 11 0.0 0.0 0.00 0.00 0.00 93 1011.2
20260510021419 48 11 0.0 0.0 0.00 0.00 0.00 93 1011.2
20260510020917 48 11 0.0 0.0 0.00 0.00 0.00 93 1011.3
20260510020403 48 11 0.0 0.0 0.00 0.00 0.00 93 1011.4
20260510015903 48 11 0.0 0.0 0.00 0.00 0.00 93 1011.4
20260510015402 48 11 0.0 0.0 0.00 0.00 0.00 93 1011.3
20260510014904 48 11 0.0 0.0 0.00 0.00 0.00 93 1011.4
20260510014402 49 11 0.0 0.0 0.00 0.00 0.00 93 1011.4
20260510013902 49 11 0.0 0.0 0.00 0.00 0.00 93 1011.3
20260510013331 49 11 0.0 0.0 0.00 0.00 0.00 93 1011.4
20260510012834 49 11 0.0 0.0 0.00 0.00 0.00 93 1011.5
20260510012307 49 11 0.0 0.0 0.00 0.00 0.00 93 1011.5
20260510011803 49 11 0.0 0.0 0.00 0.00 0.00 93 1011.5
20260510011232 49 11 0.0 0.0 0.00 0.00 0.00 92 1011.5
20260510010730 49 11 0.0 0.0 0.00 0.00 0.00 92 1011.5
20260510010231 49 11 0.0 0.0 0.00 0.00 0.00 92 1011.5
20260510005703 49 11 0.0 0.0 0.00 0.00 0.00 92 1011.5
20260510005203 49 11 0.0 0.0 0.00 0.00 0.00 92 1011.5
20260510004645 49 11 0.0 0.0 0.00 0.00 0.00 92 1011.6
20260510004140 49 11 0.0 0.0 0.00 0.00 0.00 92 1011.6
20260510003632 50 11 0.0 0.0 0.00 0.00 0.00 92 1011.6
20260510003130 50 11 0.0 0.0 0.00 0.00 0.00 92 1011.6
20260510002628 50 11 0.0 0.0 0.00 0.00 0.00 92 1011.7
20260510002103 50 11 0.0 0.0 0.00 0.00 0.00 91 1011.8
20260510001602 50 11 0.0 0.0 0.00 0.00 0.00 91 1011.9
20260510001032 50 11 0.0 0.0 0.00 0.00 0.00 91 1011.9
20260510000532 50 11 0.0 0.0 0.00 0.00 0.00 91 1011.9
20260510000035 50 11 0.0 0.0 0.00 0.00 0.00 91 1011.9
20260509235530 50 11 0.0 0.0 0.00 0.00 0.00 91 1012.0
20260509235256 50 11 0.0 0.0 0.00 0.00 0.00 90 1012.0
20260509234531 50 11 0.0 0.0 0.00 0.00 0.00 90 1012.0
20260509234031 50 11 0.0 0.0 0.00 0.00 0.00 90 1011.9
20260509233530 51 11 0.0 0.0 0.00 0.00 0.00 90 1011.9
20260509233246 51 11 0.0 0.0 0.00 0.00 0.00 89 1011.9
20260509232747 51 11 0.0 0.0 0.00 0.00 0.00 89 1011.9
20260509232025 51 11 0.0 0.0 0.00 0.00 0.00 89 1012.0
20260509231739 51 11 0.0 0.0 0.00 0.00 0.00 88 1012.0
20260509231016 51 11 0.0 0.0 0.00 0.00 0.00 88 1012.2
20260509230510 51 11 0.0 0.0 0.00 0.00 0.00 87 1012.2
20260509225931 52 11 0.0 0.0 0.00 0.00 0.00 87 1012.2
20260509225431 52 11 0.0 0.0 0.00 0.00 0.00 87 1012.1
20260509224932 52 11 0.0 0.0 0.00 0.00 0.00 87 1012.2
20260509224431 52 11 0.0 0.0 0.00 0.00 0.00 86 1012.3
20260509223930 52 11 0.0 0.0 0.00 0.00 0.00 86 1012.3
20260509223430 53 11 0.0 0.0 0.00 0.00 0.00 86 1012.4
20260509222931 53 11 0.0 0.0 0.00 0.00 0.00 86 1012.3
20260509222429 53 11 0.0 0.0 0.00 0.00 0.00 85 1012.3
20260509222152 53 11 0.0 0.0 0.00 0.00 0.00 85 1012.3
20260509221404 53 11 0.0 0.0 0.00 0.00 0.00 85 1012.4
20260509220903 53 11 0.0 0.0 0.00 0.00 0.00 84 1012.4
20260509220331 53 11 0.0 0.0 0.00 0.00 0.00 84 1012.4
20260509215830 53 11 0.0 0.0 0.00 0.00 0.00 84 1012.3
20260509215330 53 11 0.0 0.0 0.00 0.00 0.00 83 1012.4
20260509214802 54 11 0.0 0.0 0.00 0.00 0.00 83 1012.5
20260509214524 54 11 0.0 0.0 0.00 0.00 0.00 82 1012.4
20260509213959 54 11 0.0 0.0 0.00 0.00 0.00 81 1012.4
20260509213225 54 11 0.0 0.0 0.00 0.00 0.00 81 1012.5
20260509212721 54 11 0.0 0.0 0.00 0.00 0.00 81 1012.4
20260509212213 55 11 0.0 0.0 0.00 0.00 0.00 80 1012.5
20260509211710 55 11 0.0 0.0 0.00 0.00 0.00 80 1012.6
20260509211204 55 11 0.0 0.0 0.00 0.00 0.00 80 1012.5
20260509210700 55 11 0.0 0.0 0.00 0.00 0.00 80 1012.4
20260509210141 55 11 0.0 0.0 0.00 0.00 0.00 79 1012.5
20260509205639 56 11 0.0 0.0 0.00 0.00 0.00 79 1012.4
20260509205132 56 11 0.0 0.0 0.00 0.00 0.00 79 1012.5
20260509204632 56 11 0.0 0.0 0.00 0.00 0.00 78 1012.5
20260509204132 56 11 0.0 0.0 0.00 0.00 0.00 77 1012.5
20260509203604 57 11 0.0 0.0 0.00 0.00 0.00 77 1012.5
20260509203102 57 11 0.0 0.0 0.00 0.00 0.00 76 1012.5
20260509202608 57 11 0.0 0.0 0.00 0.00 0.00 76 1012.6
20260509202522 57 11 0.0 0.0 0.00 0.00 0.00 75 1012.4
20260509201751 58 11 0.0 0.0 0.00 0.00 0.00 75 1012.4
20260509201231 58 11 0.0 0.0 0.00 0.00 0.00 73 1012.5
20260509200437 58 11 0.0 0.0 0.00 0.00 0.00 73 1012.5
20260509195932 59 11 0.0 0.0 0.00 0.00 0.00 71 1012.4
20260509195432 60 11 0.0 1.0 0.00 0.00 0.00 70 1012.4
20260509194930 60 11 0.0 1.0 0.00 0.00 0.00 69 1012.4
20260509194403 61 11 0.0 1.0 0.00 0.00 0.00 68 1012.5
20260509193902 62 11 0.0 1.0 0.00 0.00 0.00 67 1012.4
20260509193331 63 11 0.0 2.0 0.00 0.00 0.00 67 1012.4
20260509192831 63 11 0.0 2.0 0.00 0.00 0.00 62 1012.3
20260509192306 64 1 0.0 2.0 0.00 0.00 0.00 63 1012.2
20260509191803 64 1 1.0 2.0 0.00 0.00 0.00 58 1012.1
20260509191520 64 72 1.0 2.0 0.00 0.00 0.00 57 1012.2
20260509190802 64 51 1.0 4.0 0.00 0.00 0.00 57 1012.2
20260509190304 65 72 1.0 4.0 0.00 0.00 0.00 57 1012.1
20260509185733 65 25 1.0 3.0 0.00 0.00 0.00 57 1012.2
20260509185227 65 359 1.0 3.0 0.00 0.00 0.00 57 1012.2
20260509184721 65 0 1.0 3.0 0.00 0.00 0.00 56 1012.3
20260509184211 66 72 1.0 3.0 0.00 0.00 0.00 56 1012.2
20260509183704 66 352 1.0 3.0 0.00 0.00 0.00 55 1012.2
20260509183139 66 343 1.0 3.0 0.00 0.00 0.00 55 1012.0
20260509182631 67 13 1.0 3.0 0.00 0.00 0.00 54 1012.0
20260509182130 67 22 1.0 3.0 0.00 0.00 0.00 53 1012.0
20260509181602 67 28 1.0 3.0 0.00 0.00 0.00 52 1011.9
20260509181102 68 6 1.0 4.0 0.00 0.00 0.00 51 1011.9
20260509180603 68 14 1.0 4.0 0.00 0.00 0.00 52 1011.8
20260509180103 69 12 1.0 3.0 0.00 0.00 0.00 52 1011.7
20260509175603 69 22 1.0 4.0 0.00 0.00 0.00 51 1011.7
20260509175032 69 1 1.0 4.0 0.00 0.00 0.00 50 1011.7
20260509174531 69 5 1.0 3.0 0.00 0.00 0.00 49 1011.7
20260509174002 69 1 1.0 5.0 0.00 0.00 0.00 47 1011.7
20260509173506 69 60 1.0 5.0 0.00 0.00 0.00 49 1011.8
20260509173002 69 75 2.0 5.0 0.00 0.00 0.00 48 1011.8
20260509172431 70 116 2.0 5.0 0.00 0.00 0.00 48 1011.8
20260509171930 70 67 2.0 5.0 0.00 0.00 0.00 47 1011.7
20260509171427 71 111 2.0 5.0 0.00 0.00 0.00 46 1011.7
20260509171149 71 69 1.0 4.0 0.00 0.00 0.00 45 1011.7
20260509170624 71 250 1.0 2.0 0.00 0.00 0.00 45 1011.7
20260509165904 71 254 1.0 6.0 0.00 0.00 0.00 47 1011.7
20260509165332 71 23 1.0 2.0 0.00 0.00 0.00 45 1011.6
20260509165057 71 1 1.0 6.0 0.00 0.00 0.00 46 1011.7
20260509164532 71 94 1.0 4.0 0.00 0.00 0.00 46 1011.7
20260509163802 71 89 2.0 6.0 0.00 0.00 0.00 46 1011.7
20260509163303 71 1 2.0 6.0 0.00 0.00 0.00 46 1011.8
20260509162802 71 311 2.0 4.0 0.00 0.00 0.00 47 1011.8
20260509162306 71 70 2.0 4.0 0.00 0.00 0.00 47 1011.8
20260509161801 71 122 2.0 5.0 0.00 0.00 0.00 46 1011.8
20260509161304 71 49 2.0 5.0 0.00 0.00 0.00 48 1011.9
20260509160957 71 108 2.0 7.0 0.00 0.00 0.00 45 1011.9
20260509160454 72 66 1.0 7.0 0.00 0.00 0.00 44 1011.9
20260509155946 72 68 1.0 4.0 0.00 0.00 0.00 45 1012.0
20260509155452 71 256 2.0 5.0 0.00 0.00 0.00 45 1012.1
20260509154703 71 51 2.0 5.0 0.00 0.00 0.00 45 1012.1
20260509154430 71 148 2.0 5.0 0.00 0.00 0.00 44 1012.1
20260509153930 72 122 2.0 5.0 0.00 0.00 0.00 43 1012.2
20260509153146 72 290 2.0 6.0 0.00 0.00 0.00 47 1012.1
20260509152637 72 21 2.0 6.0 0.00 0.00 0.00 47 1012.2
20260509152131 71 1 2.0 6.0 0.00 0.00 0.00 46 1012.3
20260509151630 71 125 2.0 6.0 0.00 0.00 0.00 45 1012.3
20260509151130 71 36 1.0 6.0 0.00 0.00 0.00 47 1012.3
20260509150632 71 1 2.0 6.0 0.00 0.00 0.00 45 1012.3
20260509150130 71 348 2.0 5.0 0.00 0.00 0.00 45 1012.3
20260509145632 71 88 2.0 5.0 0.00 0.00 0.00 45 1012.4
20260509145104 71 304 1.0 4.0 0.00 0.00 0.00 46 1012.4
20260509144603 70 264 2.0 5.0 0.00 0.00 0.00 50 1012.4
20260509144102 70 141 3.0 5.0 0.00 0.00 0.00 46 1012.5
20260509143602 71 85 3.0 5.0 0.00 0.00 0.00 46 1012.5
20260509143104 71 352 2.0 5.0 0.00 0.00 0.00 48 1012.6
20260509143048 71 24 2.0 4.0 0.00 0.00 0.00 47 1012.6
20260509142102 70 293 2.0 7.0 0.00 0.00 0.00 50 1012.6
20260509141531 70 57 2.0 7.0 0.00 0.00 0.00 47 1012.7
20260509141030 70 248 1.0 5.0 0.00 0.00 0.00 47 1012.7
20260509140503 70 66 2.0 5.0 0.00 0.00 0.00 47 1012.7
20260509140002 69 91 2.0 5.0 0.00 0.00 0.00 46 1012.9
20260509135504 70 138 2.0 5.0 0.00 0.00 0.00 46 1012.9
20260509135003 70 52 1.0 4.0 0.00 0.00 0.00 48 1013.0
20260509134502 70 88 2.0 4.0 0.00 0.00 0.00 45 1013.0
20260509133931 70 234 2.0 5.0 0.00 0.00 0.00 46 1013.1
20260509133431 70 36 2.0 5.0 0.00 0.00 0.00 47 1013.2
20260509132903 70 99 2.0 6.0 0.00 0.00 0.00 46 1013.3
20260509132402 70 154 2.0 7.0 0.00 0.00 0.00 45 1013.3
20260509131831 70 1 2.0 7.0 0.00 0.00 0.00 46 1013.4
20260509131327 70 25 2.0 5.0 0.00 0.00 0.00 46 1013.4
20260509130803 69 15 2.0 7.0 0.00 0.00 0.00 46 1013.5
20260509130304 69 1 2.0 7.0 0.00 0.00 0.00 46 1013.5
20260509125807 69 122 2.0 7.0 0.00 0.00 0.00 48 1013.6
20260509125237 69 75 3.0 7.0 0.00 0.00 0.00 47 1013.6
20260509124737 69 11 3.0 7.0 0.00 0.00 0.00 47 1013.7
20260509124209 69 33 2.0 7.0 0.00 0.00 0.00 48 1013.7
20260509123707 69 7 3.0 8.0 0.00 0.00 0.00 48 1013.7
20260509123151 68 152 3.0 8.0 0.00 0.00 0.00 50 1013.7
20260509122640 69 1 3.0 7.0 0.00 0.00 0.00 50 1013.7
20260509122137 69 3 3.0 7.0 0.00 0.00 0.00 48 1013.8
20260509121631 69 8 3.0 7.0 0.00 0.00 0.00 49 1014.0
20260509121357 69 47 2.0 6.0 0.00 0.00 0.00 48 1014.0
20260509120633 69 3 2.0 6.0 0.00 0.00 0.00 48 1014.1
20260509120132 69 86 2.0 6.0 0.00 0.00 0.00 49 1014.1
20260509115630 69 118 1.0 6.0 0.00 0.00 0.00 48 1014.2
20260509115130 69 103 2.0 6.0 0.00 0.00 0.00 50 1014.1
20260509114629 69 316 2.0 6.0 0.00 0.00 0.00 51 1014.2
20260509114328 69 189 2.0 11.0 0.00 0.00 0.00 48 1014.3
20260509113603 68 79 2.0 11.0 0.00 0.00 0.00 50 1014.4
20260509113031 68 96 2.0 6.0 0.00 0.00 0.00 51 1014.4
20260509112530 68 101 2.0 4.0 0.00 0.00 0.00 51 1014.5
20260509112255 68 359 2.0 6.0 0.00 0.00 0.00 51 1014.6
20260509111758 68 0 1.0 5.0 0.00 0.00 0.00 51 1014.6
20260509111030 67 51 2.0 5.0 0.00 0.00 0.00 51 1014.7
20260509111014 67 57 3.0 5.0 0.00 0.00 0.00 51 1014.7
20260509110522 67 1 3.0 5.0 0.00 0.00 0.00 51 1014.8
20260509105530 67 1 3.0 7.0 0.00 0.00 0.00 52 1014.8
20260509105030 67 37 3.0 7.0 0.00 0.00 0.00 52 1014.9
20260509104530 67 138 2.0 7.0 0.00 0.00 0.00 52 1014.9
20260509104032 67 26 2.0 7.0 0.00 0.00 0.00 53 1015.0
20260509103530 67 81 2.0 6.0 0.00 0.00 0.00 54 1015.0
20260509103030 67 335 2.0 6.0 0.00 0.00 0.00 54 1015.1
20260509102528 67 27 2.0 6.0 0.00 0.00 0.00 53 1015.1
20260509102025 67 114 2.0 5.0 0.00 0.00 0.00 54 1015.1
20260509101725 66 151 2.0 5.0 0.00 0.00 0.00 57 1015.1
20260509101227 66 359 3.0 8.0 0.00 0.00 0.00 58 1015.2
20260509100657 66 120 3.0 8.0 0.00 0.00 0.00 56 1015.2
20260509095924 67 133 2.0 6.0 0.00 0.00 0.00 58 1015.2